Flag for Germany Weather past 2 weeks in Dinslaken, North Rhine-Westphalia, Germany

Now
51 °F

Passing clouds.


Feels Like: 50 °F
Forecast: 50 / 64 °F
Wind: 3 mph from Northeast

Location: Duesseldorf


UV Index: 3 (Moderate)

Visibility: 8 mi


Pressure: 29.91 "Hg

Humidity: 92%

Dew point: 48 °F

Location of DinslakenLocation

Historic Weather in Dinslaken

°F

Dinslaken temperature yesterday

Maximum temperature yesterday: 71 °F (at 4:00 PM)
Minimum temperature yesterday: 47 °F (at 6:00 AM)
Average temperature yesterday: 59 °F

Past Weeks' High & Low Weather Summary

 TemperatureHumidityPressure
High72 °F (Apr 20, 2:00 PM)97% (Apr 12, 8:00 AM)30.47 "Hg (Apr 12, 8:00 AM)
Low30 °F (Apr 16, 5:00 AM)26% (Apr 17, 5:00 PM)29.64 "Hg (Apr 21, 6:00 PM)
Average53 °F67%30.05 "Hg
* Reported Apr 10 4:00 AM — Apr 25 4:00 AM, Dinslaken, Weather by CustomWeather, © 2014

Note: Actual official high and low records may vary slightly from our data, if they occured in-between our weather recording intervals... More about our weather records

Advertising

Historic Weather Conditions — Data for Previous 24 hours

 ConditionsComfort  
Time TempWeatherWind HumidityBarometerVisibility
4:00 AM
Apr 25
52 °FFog.1 mph94%29.93 "Hg11 mi
3:00 AM54 °FPassing clouds.2 mph93%29.94 "Hg9 mi
2:00 AM55 °FPassing clouds.5 mph90%29.96 "Hg16 mi
1:00 AM56 °FPassing clouds.3 mph92%29.98 "Hg16 mi
12:00 AM57 °FLight rain. Overcast.3 mph86%29.98 "Hg16 mi
11:00 PM
Apr 24
57 °FThundershowers. Overcast.1 mph86%30.01 "Hg9 mi
10:00 PM63 °FOvercast.2 mph54%29.99 "Hg22 mi
9:00 PM62 °FSprinkles. Overcast.1 mph65%29.99 "Hg25 mi
8:00 PM64 °FOvercast.2 mph51%30.00 "Hg28 mi
7:00 PM66 °FOvercast.3 mph51%30.01 "Hg28 mi
6:00 PM68 °FPartly sunny.7 mph48%30.01 "Hg28 mi
5:00 PM69 °FPartly sunny.10 mph47%30.03 "Hg19 mi
4:00 PM71 °FScattered clouds.1 mph42%30.03 "Hg22 mi
3:00 PM69 °FPartly sunny.1 mph46%30.06 "Hg17 mi
2:00 PM67 °FOvercast.1 mph54%30.07 "Hg19 mi
1:00 PM65 °FOvercast.2 mph56%30.09 "Hg22 mi
12:00 PM63 °FLight rain. Partly sunny.2 mph63%30.11 "Hg19 mi
10:00 AM62 °FScattered clouds.1 mph63%30.11 "Hg19 mi
9:00 AM56 °FPartly sunny.2 mph73%30.11 "Hg19 mi
8:00 AM51 °FPartly sunny.1 mph88%30.12 "Hg19 mi
7:00 AM47 °FFog.2 mph93%30.10 "Hg19 mi
6:00 AM47 °FFog.1 mph94%30.10 "Hg22 mi
Weather by CustomWeather, © 2014

See weather overview